When you browse on this site, cookies collect data to enhance your experience and personalize the content and advertising you see.
Visit our Privacy Policy to learn more. By continuing to use the site, you agree to this use of cookies and data.
  • In Latvia
  • List of Countries
  • For 7 days
  • Water Temperature
  • Weather Map
  • Weather Widgets
  • user-avatar
    Login

    Hourly Weather Novostepnoe

    Today, 18 October, Friday

    Time Temperature Precipitation Wind Pressure Humidity
    00:00 +7°C° 0 mm 3 mps 766 mmHg 47%
    01:00 +7°C° 0 mm 3 mps 766 mmHg 48%
    02:00 +7°C° 0 mm 3 mps 766 mmHg 49%
    03:00 +7°C° 0 mm 3 mps 765 mmHg 53%
    04:00 +5°C° 0 mm 3 mps 765 mmHg 54%
    05:00 +5°C° 0 mm 3 mps 765 mmHg 55%
    06:00 +5°C° 0 mm 3 mps 764 mmHg 56%
    07:00 +7°C° 0 mm 3 mps 764 mmHg 52%
    08:00 +9°C° 0 mm 3 mps 764 mmHg 48%
    09:00 +10°C° 0 mm 4 mps 764 mmHg 43%
    10:00 +12°C° 0 mm 4 mps 763 mmHg 39%
    11:00 +13°C° 0 mm 4 mps 763 mmHg 36%
    12:00 +15°C° 0 mm 4 mps 762 mmHg 33%
    13:00 +15°C° 0 mm 4 mps 762 mmHg 34%
    14:00 +15°C° 0 mm 4 mps 761 mmHg 36%
    15:00 +17°C° 0 mm 3 mps 761 mmHg 37%
    16:00 +16°C° 0 mm 3 mps 761 mmHg 42%
    17:00 +13°C° 0 mm 3 mps 761 mmHg 48%
    18:00 +12°C° 0 mm 3 mps 760 mmHg 53%
    19:00 +12°C° 0 mm 3 mps 760 mmHg 57%
    20:00 +12°C° 0 mm 3 mps 760 mmHg 61%
    21:00 +11°C° 0 mm 3 mps 760 mmHg 65%
    22:00 +11°C° 0 mm 3 mps 760 mmHg 68%
    23:00 +11°C° 0 mm 3 mps 760 mmHg 70%

    Tomorrow, 19 October, Saturday

    Time Temperature Precipitation Wind Pressure Humidity
    00:00 +10°C° 0 mm 3 mps 760 mmHg 73%
    01:00 +10°C° 0 mm 2 mps 760 mmHg 76%
    02:00 +10°C° 0 mm 2 mps 760 mmHg 79%
    03:00 +9°C° 0 mm 2 mps 760 mmHg 81%
    04:00 +9°C° 0 mm 2 mps 760 mmHg 83%
    05:00 +9°C° 0 mm 2 mps 760 mmHg 85%
    06:00 +9°C° 0 mm 2 mps 761 mmHg 87%
    07:00 +10°C° 0 mm 2 mps 761 mmHg 82%
    08:00 +13°C° 0 mm 2 mps 761 mmHg 77%
    09:00 +14°C° 0 mm 2 mps 762 mmHg 72%
    10:00 +15°C° 0 mm 2 mps 762 mmHg 68%
    11:00 +16°C° 0 mm 3 mps 762 mmHg 64%
    12:00 +18°C° 0 mm 3 mps 762 mmHg 61%
    13:00 +18°C° 0 mm 3 mps 762 mmHg 57%
    14:00 +18°C° 0 mm 3 mps 762 mmHg 54%
    15:00 +18°C° 0 mm 3 mps 762 mmHg 51%
    16:00 +17°C° 0 mm 3 mps 762 mmHg 54%
    17:00 +16°C° 0 mm 3 mps 762 mmHg 57%
    18:00 +13°C° 0 mm 3 mps 763 mmHg 59%
    19:00 +13°C° 0 mm 3 mps 763 mmHg 65%
    20:00 +12°C° 0 mm 3 mps 763 mmHg 72%
    21:00 +11°C° 0 mm 3 mps 764 mmHg 78%
    22:00 +10°C° 0 mm 3 mps 764 mmHg 82%
    23:00 +10°C° 0 mm 3 mps 764 mmHg 86%

    Day after tomorrow, 20 October, Sunday

    Time Temperature Precipitation Wind Pressure Humidity
    00:00 +9°C° 0 mm 3 mps 765 mmHg 89%
    01:00 +9°C° 0 mm 3 mps 765 mmHg 90%
    02:00 +8°C° 0 mm 3 mps 765 mmHg 90%
    03:00 +8°C° 0 mm 3 mps 765 mmHg 90%
    04:00 +8°C° 0 mm 3 mps 766 mmHg 90%
    05:00 +8°C° 0 mm 3 mps 766 mmHg 90%
    06:00 +7°C° 0 mm 3 mps 766 mmHg 89%
    07:00 +8°C° 0 mm 3 mps 766 mmHg 84%
    08:00 +9°C° 0 mm 3 mps 767 mmHg 79%
    09:00 +10°C° 0 mm 3 mps 767 mmHg 74%
    10:00 +11°C° 0 mm 3 mps 767 mmHg 69%
    11:00 +13°C° 0 mm 3 mps 767 mmHg 64%
    12:00 +15°C° 0 mm 2 mps 767 mmHg 59%
    13:00 +15°C° 0 mm 2 mps 767 mmHg 57%
    14:00 +15°C° 0 mm 2 mps 767 mmHg 56%
    15:00 +16°C° 0 mm 2 mps 767 mmHg 55%
    16:00 +15°C° 0 mm 2 mps 767 mmHg 59%
    17:00 +14°C° 0 mm 2 mps 767 mmHg 64%
    18:00 +13°C° 0 mm 2 mps 768 mmHg 69%
    19:00 +12°C° 0 mm 2 mps 768 mmHg 71%
    20:00 +12°C° 0 mm 2 mps 768 mmHg 74%
    21:00 +12°C° 0 mm 2 mps 768 mmHg 76%
    22:00 +12°C° 0 mm 2 mps 768 mmHg 76%
    23:00 +10°C° 0 mm 2 mps 768 mmHg 76%

    21 October, Monday

    Time Temperature Precipitation Wind Pressure Humidity
    00:00 +10°C° 0 mm 2 mps 768 mmHg 76%
    01:00 +10°C° 0 mm 2 mps 768 mmHg 76%
    02:00 +9°C° 0 mm 2 mps 768 mmHg 77%
    03:00 +10°C° 0 mm 1 mps 768 mmHg 78%
    04:00 +9°C° 0 mm 1 mps 769 mmHg 78%
    05:00 +8°C° 0 mm 2 mps 769 mmHg 79%
    06:00 +8°C° 0 mm 2 mps 769 mmHg 79%
    07:00 +9°C° 0 mm 2 mps 769 mmHg 74%
    08:00 +10°C° 0 mm 2 mps 769 mmHg 68%
    09:00 +12°C° 0 mm 2 mps 769 mmHg 62%
    10:00 +13°C° 0 mm 2 mps 769 mmHg 59%
    11:00 +14°C° 0 mm 2 mps 769 mmHg 55%
    12:00 +15°C° 0 mm 2 mps 769 mmHg 52%
    13:00 +15°C° 0 mm 2 mps 768 mmHg 51%
    14:00 +15°C° 0 mm 2 mps 768 mmHg 51%
    15:00 +15°C° 0 mm 2 mps 768 mmHg 50%
    16:00 +14°C° 0 mm 2 mps 768 mmHg 53%
    17:00 +13°C° 0 mm 2 mps 768 mmHg 56%
    18:00 +12°C° 0 mm 2 mps 768 mmHg 59%
    19:00 +12°C° 0 mm 2 mps 768 mmHg 60%
    20:00 +12°C° 0 mm 2 mps 768 mmHg 61%
    21:00 +10°C° 0 mm 2 mps 767 mmHg 62%
    22:00 +10°C° 0 mm 2 mps 767 mmHg 63%
    23:00 +9°C° 0 mm 3 mps 767 mmHg 64%

    22 October, Tuesday

    Time Temperature Precipitation Wind Pressure Humidity
    00:00 +9°C° 0 mm 3 mps 767 mmHg 65%
    01:00 +9°C° 0 mm 3 mps 767 mmHg 66%
    02:00 +8°C° 0 mm 3 mps 766 mmHg 67%
    03:00 +8°C° 0 mm 3 mps 766 mmHg 68%
    04:00 +8°C° 0 mm 3 mps 766 mmHg 69%
    05:00 +8°C° 0 mm 3 mps 766 mmHg 70%
    06:00 +8°C° 0 mm 3 mps 766 mmHg 71%
    07:00 +9°C° 0 mm 3 mps 766 mmHg 67%
    08:00 +10°C° 0 mm 3 mps 766 mmHg 63%
    09:00 +12°C° 0 mm 4 mps 766 mmHg 59%
    10:00 +13°C° 0 mm 4 mps 765 mmHg 55%
    11:00 +14°C° 0 mm 5 mps 765 mmHg 52%
    12:00 +16°C° 0 mm 5 mps 765 mmHg 49%
    13:00 +16°C° 0 mm 5 mps 764 mmHg 48%
    14:00 +16°C° 0 mm 5 mps 764 mmHg 48%
    15:00 +17°C° 0 mm 6 mps 764 mmHg 47%
    16:00 +16°C° 0 mm 5 mps 763 mmHg 51%
    17:00 +15°C° 0 mm 5 mps 763 mmHg 54%
    18:00 +14°C° 0 mm 4 mps 763 mmHg 58%
    19:00 +13°C° 0 mm 4 mps 763 mmHg 58%
    20:00 +13°C° 0 mm 5 mps 763 mmHg 58%
    21:00 +13°C° 0 mm 5 mps 763 mmHg 59%
    22:00 +13°C° 0 mm 5 mps 762 mmHg 59%
    23:00 +13°C° 0 mm 5 mps 762 mmHg 60%

    23 October, Wednesday

    Time Temperature Precipitation Wind Pressure Humidity
    00:00 +13°C° 0 mm 5 mps 762 mmHg 61%
    01:00 +13°C° 0 mm 5 mps 762 mmHg 62%
    02:00 +12°C° 0 mm 5 mps 762 mmHg 63%
    03:00 +12°C° 0 mm 5 mps 761 mmHg 64%
    04:00 +12°C° 0 mm 5 mps 761 mmHg 65%
    05:00 +12°C° 0 mm 5 mps 761 mmHg 67%
    06:00 +12°C° 0 mm 5 mps 761 mmHg 68%
    07:00 +12°C° 0 mm 5 mps 761 mmHg 67%
    08:00 +13°C° 0 mm 5 mps 761 mmHg 66%
    09:00 +13°C° 0 mm 5 mps 761 mmHg 64%
    10:00 +14°C° 0 mm 4 mps 761 mmHg 65%
    11:00 +14°C° 0 mm 4 mps 761 mmHg 65%
    12:00 +16°C° 0 mm 3 mps 762 mmHg 65%
    13:00 +16°C° 0 mm 3 mps 762 mmHg 64%
    14:00 +17°C° 0 mm 3 mps 762 mmHg 62%
    15:00 +18°C° 0 mm 3 mps 762 mmHg 61%
    16:00 +17°C° 0 mm 3 mps 762 mmHg 65%
    17:00 +16°C° 0 mm 2 mps 762 mmHg 70%
    18:00 +15°C° 0 mm 2 mps 762 mmHg 75%
    19:00 +14°C° 0 mm 2 mps 762 mmHg 76%
    20:00 +14°C° 0 mm 1 mps 763 mmHg 77%
    21:00 +14°C° 0 mm 1 mps 763 mmHg 79%
    22:00 +14°C° 0 mm 1 mps 763 mmHg 79%
    23:00 +14°C° 0 mm 1 mps 763 mmHg 78%
    Show more